Time,TemperatureF,DewpointF,PressureIn,WindDirection,WindDirectionDegrees,WindSpeedMPH,WindSpeedGustMPH,Humidity,HourlyPrecipIn,Conditions,Clouds,dailyrainin,SolarRadiationWatts/m^2,SoftwareType,DateUTC
2013-07-26 00:02:00,81.0,72.0,-100.00,ESE,113,1.0,4.0,73,0.00,,,0.00,0.000000,,2013-07-26 05:02:00,
2013-07-26 00:22:00,81.0,72.0,-100.00,SSW,192,1.0,3.0,75,0.00,,,0.00,0.000000,,2013-07-26 05:22:00,
2013-07-26 00:32:00,81.0,72.0,-100.00,SSW,192,1.0,3.0,75,0.00,,,0.00,0.000000,,2013-07-26 05:32:00,
2013-07-26 00:43:00,81.0,72.0,-100.00,SSW,192,1.0,3.0,75,0.00,,,0.00,0.000000,,2013-07-26 05:43:00,
2013-07-26 00:52:00,81.0,72.0,-100.00,SSW,192,1.0,3.0,75,0.00,,,0.00,0.000000,,2013-07-26 05:52:00,
2013-07-26 01:02:00,81.0,72.0,-100.00,SSW,192,1.0,3.0,75,0.00,,,0.00,0.000000,,2013-07-26 06:02:00,
2013-07-26 01:22:00,80.0,73.0,-100.00,SSE,153,3.0,5.0,80,0.00,,,0.00,0.000000,,2013-07-26 06:22:00,
2013-07-26 01:33:00,80.0,73.0,-100.00,SSE,153,3.0,5.0,80,0.00,,,0.00,0.000000,,2013-07-26 06:33:00,
2013-07-26 01:43:00,80.0,73.0,-100.00,SSE,153,3.0,5.0,80,0.00,,,0.00,0.000000,,2013-07-26 06:43:00,
2013-07-26 01:52:00,80.0,73.0,-100.00,SSE,153,3.0,5.0,80,0.00,,,0.00,0.000000,,2013-07-26 06:52:00,
2013-07-26 02:02:00,80.0,73.0,-100.00,SSE,153,3.0,5.0,80,0.00,,,0.00,0.000000,,2013-07-26 07:02:00,
2013-07-26 02:22:00,79.0,74.0,-100.00,South,180,2.0,5.0,84,0.00,,,0.00,0.000000,,2013-07-26 07:22:00,
2013-07-26 02:32:00,79.0,74.0,-100.00,South,180,2.0,5.0,84,0.00,,,0.00,0.000000,,2013-07-26 07:32:00,
2013-07-26 02:43:00,79.0,74.0,-100.00,South,180,2.0,5.0,84,0.00,,,0.00,0.000000,,2013-07-26 07:43:00,
2013-07-26 02:53:00,79.0,74.0,-100.00,South,180,2.0,5.0,84,0.00,,,0.00,0.000000,,2013-07-26 07:53:00,
2013-07-26 03:02:00,79.0,74.0,-100.00,South,180,2.0,5.0,84,0.00,,,0.00,0.000000,,2013-07-26 08:02:00,
2013-07-26 03:22:00,78.0,74.0,-100.00,SSW,201,2.0,5.0,87,0.00,,,0.00,0.000000,,2013-07-26 08:22:00,
2013-07-26 03:32:00,78.0,74.0,-100.00,SSW,201,2.0,5.0,87,0.00,,,0.00,0.000000,,2013-07-26 08:32:00,
2013-07-26 03:44:00,78.0,74.0,-100.00,SSW,201,2.0,5.0,87,0.00,,,0.00,0.000000,,2013-07-26 08:44:00,
2013-07-26 03:52:00,78.0,74.0,-100.00,SSW,201,2.0,5.0,87,0.00,,,0.00,0.000000,,2013-07-26 08:52:00,
2013-07-26 04:02:00,78.0,74.0,-100.00,SSW,201,2.0,5.0,87,0.00,,,0.00,0.000000,,2013-07-26 09:02:00,
2013-07-26 04:22:00,77.0,74.0,-100.00,South,191,1.0,3.0,91,0.00,,,0.00,0.000000,,2013-07-26 09:22:00,
2013-07-26 04:32:00,77.0,74.0,-100.00,South,191,1.0,3.0,91,0.00,,,0.00,0.000000,,2013-07-26 09:32:00,
2013-07-26 04:43:00,77.0,74.0,-100.00,South,191,1.0,3.0,91,0.00,,,0.00,0.000000,,2013-07-26 09:43:00,
2013-07-26 04:52:00,77.0,74.0,-100.00,South,191,1.0,3.0,91,0.00,,,0.00,0.000000,,2013-07-26 09:52:00,
2013-07-26 05:02:00,77.0,74.0,-100.00,South,191,1.0,3.0,91,0.00,,,0.00,0.000000,,2013-07-26 10:02:00,
2013-07-26 05:33:00,77.0,75.0,-100.00,South,169,1.0,3.0,94,0.00,,,0.00,0.000000,,2013-07-26 10:33:00,
2013-07-26 05:43:00,77.0,75.0,-100.00,South,169,1.0,3.0,94,0.00,,,0.00,0.000000,,2013-07-26 10:43:00,
2013-07-26 05:52:00,77.0,75.0,-100.00,South,169,1.0,3.0,94,0.00,,,0.00,0.000000,,2013-07-26 10:52:00,
2013-07-26 06:02:00,77.0,75.0,-100.00,South,169,1.0,3.0,94,0.00,,,0.00,0.000000,,2013-07-26 11:02:00,
2013-07-26 06:22:00,76.0,74.0,-100.00,SSE,161,3.0,5.0,95,0.00,,,0.00,0.000000,,2013-07-26 11:22:00,
2013-07-26 06:32:00,76.0,74.0,-100.00,SSE,161,3.0,5.0,95,0.00,,,0.00,0.000000,,2013-07-26 11:32:00,
2013-07-26 06:43:00,76.0,74.0,-100.00,SSE,161,3.0,5.0,95,0.00,,,0.00,0.000000,,2013-07-26 11:43:00,
2013-07-26 06:52:00,76.0,74.0,-100.00,SSE,161,3.0,5.0,95,0.00,,,0.00,0.000000,,2013-07-26 11:52:00,
2013-07-26 07:02:00,76.0,74.0,-100.00,SSE,161,3.0,5.0,95,0.00,,,0.00,0.000000,,2013-07-26 12:02:00,
2013-07-26 07:22:00,77.0,75.0,-100.00,South,186,2.0,4.0,95,0.00,,,0.00,12.000000,,2013-07-26 12:22:00,
2013-07-26 07:33:00,77.0,75.0,-100.00,South,186,2.0,4.0,95,0.00,,,0.00,12.000000,,2013-07-26 12:33:00,
2013-07-26 07:43:00,77.0,75.0,-100.00,South,186,2.0,4.0,95,0.00,,,0.00,12.000000,,2013-07-26 12:43:00,
2013-07-26 07:53:00,77.0,75.0,-100.00,South,186,2.0,4.0,95,0.00,,,0.00,12.000000,,2013-07-26 12:53:00,
2013-07-26 08:02:00,77.0,75.0,-100.00,South,186,2.0,4.0,95,0.00,,,0.00,12.000000,,2013-07-26 13:02:00,
2013-07-26 08:32:00,79.0,76.0,-100.00,SSW,197,3.0,6.0,90,0.00,,,0.00,101.000000,,2013-07-26 13:32:00,
2013-07-26 08:43:00,79.0,76.0,-100.00,SSW,197,3.0,6.0,90,0.00,,,0.00,101.000000,,2013-07-26 13:43:00,
2013-07-26 08:53:00,79.0,76.0,-100.00,SSW,197,3.0,6.0,90,0.00,,,0.00,101.000000,,2013-07-26 13:53:00,
2013-07-26 09:02:00,79.0,76.0,-100.00,SSW,197,3.0,6.0,90,0.00,,,0.00,101.000000,,2013-07-26 14:02:00,
2013-07-26 09:22:00,82.0,76.0,-100.00,SW,219,4.0,7.0,82,0.00,,,0.00,267.000000,,2013-07-26 14:22:00,
2013-07-26 09:33:00,82.0,76.0,-100.00,SW,219,4.0,7.0,82,0.00,,,0.00,267.000000,,2013-07-26 14:33:00,
2013-07-26 09:43:00,82.0,76.0,-100.00,SW,219,4.0,7.0,82,0.00,,,0.00,267.000000,,2013-07-26 14:43:00,
2013-07-26 09:53:00,82.0,76.0,-100.00,SW,219,4.0,7.0,82,0.00,,,0.00,267.000000,,2013-07-26 14:53:00,
2013-07-26 10:02:00,82.0,76.0,-100.00,SW,219,4.0,7.0,82,0.00,,,0.00,267.000000,,2013-07-26 15:02:00,
2013-07-26 10:22:00,85.0,75.0,-100.00,SW,223,4.0,10.0,73,0.00,,,0.00,382.000000,,2013-07-26 15:22:00,
2013-07-26 10:33:00,85.0,75.0,-100.00,SW,223,4.0,10.0,73,0.00,,,0.00,382.000000,,2013-07-26 15:33:00,
2013-07-26 10:43:00,85.0,75.0,-100.00,SW,223,4.0,10.0,73,0.00,,,0.00,382.000000,,2013-07-26 15:43:00,
2013-07-26 10:53:00,85.0,75.0,-100.00,SW,223,4.0,10.0,73,0.00,,,0.00,382.000000,,2013-07-26 15:53:00,
2013-07-26 11:02:00,85.0,75.0,-100.00,SW,223,4.0,10.0,73,0.00,,,0.00,382.000000,,2013-07-26 16:02:00,
2013-07-26 11:22:00,88.0,73.0,-100.00,South,179,5.0,10.0,62,0.00,,,0.00,707.000000,,2013-07-26 16:22:00,
2013-07-26 11:32:00,88.0,73.0,-100.00,South,179,5.0,10.0,62,0.00,,,0.00,707.000000,,2013-07-26 16:32:00,
2013-07-26 11:43:00,88.0,73.0,-100.00,South,179,5.0,10.0,62,0.00,,,0.00,707.000000,,2013-07-26 16:43:00,
2013-07-26 11:54:00,88.0,73.0,-100.00,South,179,5.0,10.0,62,0.00,,,0.00,707.000000,,2013-07-26 16:54:00,
2013-07-26 12:02:00,88.0,73.0,-100.00,South,179,5.0,10.0,62,0.00,,,0.00,707.000000,,2013-07-26 17:02:00,
2013-07-26 12:03:00,91.0,74.0,-100.00,SW,223,4.0,11.0,57,0.00,,,0.00,765.000000,,2013-07-26 17:03:00,
2013-07-26 12:23:00,91.0,74.0,-100.00,SW,223,4.0,11.0,57,0.00,,,0.00,765.000000,,2013-07-26 17:23:00,
2013-07-26 12:33:00,91.0,74.0,-100.00,SW,223,4.0,11.0,57,0.00,,,0.00,765.000000,,2013-07-26 17:33:00,
2013-07-26 12:43:00,91.0,74.0,-100.00,SW,223,4.0,11.0,57,0.00,,,0.00,765.000000,,2013-07-26 17:43:00,
2013-07-26 12:53:00,91.0,74.0,-100.00,SW,223,4.0,11.0,57,0.00,,,0.00,765.000000,,2013-07-26 17:53:00,
2013-07-26 13:03:00,90.0,70.0,-100.00,West,260,5.0,11.0,52,0.00,,,0.00,834.000000,,2013-07-26 18:03:00,
2013-07-26 13:23:00,90.0,70.0,-100.00,West,260,5.0,11.0,52,0.00,,,0.00,834.000000,,2013-07-26 18:23:00,
2013-07-26 13:33:00,90.0,70.0,-100.00,West,260,5.0,11.0,52,0.00,,,0.00,834.000000,,2013-07-26 18:33:00,
2013-07-26 13:44:00,90.0,70.0,-100.00,West,260,5.0,11.0,52,0.00,,,0.00,834.000000,,2013-07-26 18:44:00,
2013-07-26 13:52:00,90.0,70.0,-100.00,West,260,5.0,11.0,52,0.00,,,0.00,834.000000,,2013-07-26 18:52:00,
2013-07-26 14:23:00,90.0,72.0,-100.00,SSW,208,4.0,11.0,55,0.00,,,0.00,527.000000,,2013-07-26 19:23:00,
2013-07-26 14:32:00,90.0,72.0,-100.00,SSW,208,4.0,11.0,55,0.00,,,0.00,527.000000,,2013-07-26 19:32:00,
2013-07-26 14:43:00,90.0,72.0,-100.00,SSW,208,4.0,11.0,55,0.00,,,0.00,527.000000,,2013-07-26 19:43:00,
2013-07-26 14:52:00,90.0,72.0,-100.00,SSW,208,4.0,11.0,55,0.00,,,0.00,527.000000,,2013-07-26 19:52:00,
2013-07-26 15:02:00,90.0,72.0,-100.00,SSW,208,4.0,11.0,55,0.00,,,0.00,527.000000,,2013-07-26 20:02:00,
2013-07-26 15:22:00,93.0,71.0,-100.00,WSW,244,5.0,12.0,49,0.00,,,-99.99,820.000000,,2013-07-26 20:22:00,
2013-07-26 15:32:00,93.0,71.0,-100.00,WSW,244,5.0,12.0,49,0.00,,,-99.99,820.000000,,2013-07-26 20:32:00,
2013-07-26 15:43:00,93.0,71.0,-100.00,WSW,244,5.0,12.0,49,0.00,,,-99.99,820.000000,,2013-07-26 20:43:00,
2013-07-26 15:53:00,93.0,71.0,-100.00,WSW,244,5.0,12.0,49,0.00,,,-99.99,820.000000,,2013-07-26 20:53:00,
2013-07-26 16:02:00,93.0,71.0,-100.00,WSW,244,5.0,12.0,49,0.00,,,-99.99,820.000000,,2013-07-26 21:02:00,
2013-07-26 16:22:00,92.0,70.0,-100.00,SW,229,4.0,11.0,49,0.00,,,0.00,643.000000,,2013-07-26 21:22:00,
2013-07-26 16:32:00,92.0,70.0,-100.00,SW,229,4.0,11.0,49,0.00,,,0.00,643.000000,,2013-07-26 21:32:00,
2013-07-26 16:43:00,92.0,70.0,-100.00,SW,229,4.0,11.0,49,0.00,,,0.00,643.000000,,2013-07-26 21:43:00,
2013-07-26 16:53:00,92.0,70.0,-100.00,SW,229,4.0,11.0,49,0.00,,,0.00,643.000000,,2013-07-26 21:53:00,
2013-07-26 17:02:00,92.0,70.0,-100.00,SW,229,4.0,11.0,49,0.00,,,0.00,643.000000,,2013-07-26 22:02:00,
2013-07-26 17:22:00,92.0,72.0,-100.00,SSE,149,2.0,10.0,52,0.00,,,0.00,314.000000,,2013-07-26 22:22:00,
2013-07-26 17:33:00,92.0,72.0,-100.00,SSE,149,2.0,10.0,52,0.00,,,0.00,314.000000,,2013-07-26 22:33:00,
2013-07-26 17:43:00,92.0,72.0,-100.00,SSE,149,2.0,10.0,52,0.00,,,0.00,314.000000,,2013-07-26 22:43:00,
2013-07-26 17:53:00,92.0,72.0,-100.00,SSE,149,2.0,10.0,52,0.00,,,0.00,314.000000,,2013-07-26 22:53:00,
2013-07-26 18:02:00,92.0,72.0,-100.00,SSE,149,2.0,10.0,52,0.00,,,0.00,314.000000,,2013-07-26 23:02:00,
2013-07-26 18:22:00,94.0,71.0,-100.00,SSW,213,5.0,8.0,47,0.00,,,0.00,470.000000,,2013-07-26 23:22:00,
2013-07-26 18:32:00,94.0,71.0,-100.00,SSW,213,5.0,8.0,47,0.00,,,0.00,470.000000,,2013-07-26 23:32:00,
2013-07-26 18:43:00,94.0,71.0,-100.00,SSW,213,5.0,8.0,47,0.00,,,0.00,470.000000,,2013-07-26 23:43:00,
2013-07-26 18:53:00,94.0,71.0,-100.00,SSW,213,5.0,8.0,47,0.00,,,0.00,470.000000,,2013-07-26 23:53:00,
2013-07-26 19:02:00,94.0,71.0,-100.00,SSW,213,5.0,8.0,47,0.00,,,0.00,470.000000,,2013-07-27 00:02:00,
2013-07-26 19:22:00,91.0,70.0,-100.00,South,172,3.0,8.0,50,0.00,,,0.00,207.000000,,2013-07-27 00:22:00,
2013-07-26 19:32:00,91.0,70.0,-100.00,South,172,3.0,8.0,50,0.00,,,0.00,207.000000,,2013-07-27 00:32:00,
2013-07-26 19:43:00,91.0,70.0,-100.00,South,172,3.0,8.0,50,0.00,,,0.00,207.000000,,2013-07-27 00:43:00,
2013-07-26 19:53:00,91.0,70.0,-100.00,South,172,3.0,8.0,50,0.00,,,0.00,207.000000,,2013-07-27 00:53:00,
2013-07-26 20:02:00,91.0,70.0,-100.00,South,172,3.0,8.0,50,0.00,,,0.00,207.000000,,2013-07-27 01:02:00,
2013-07-26 20:22:00,87.0,70.0,-100.00,South,178,1.0,6.0,57,0.00,,,0.00,68.000000,,2013-07-27 01:22:00,
2013-07-26 20:32:00,87.0,70.0,-100.00,South,178,1.0,6.0,57,0.00,,,0.00,68.000000,,2013-07-27 01:32:00,
2013-07-26 20:44:00,87.0,70.0,-100.00,South,178,1.0,6.0,57,0.00,,,0.00,68.000000,,2013-07-27 01:44:00,
2013-07-26 20:53:00,87.0,70.0,-100.00,South,178,1.0,6.0,57,0.00,,,0.00,68.000000,,2013-07-27 01:53:00,
2013-07-26 21:02:00,87.0,70.0,-100.00,South,178,1.0,6.0,57,0.00,,,0.00,68.000000,,2013-07-27 02:02:00,
2013-07-26 21:03:00,84.0,73.0,-100.00,South,176,2.0,4.0,70,0.00,,,-99.99,1.000000,,2013-07-27 02:03:00,
2013-07-26 21:22:00,84.0,73.0,-100.00,South,176,2.0,4.0,70,0.00,,,-99.99,1.000000,,2013-07-27 02:22:00,
2013-07-26 21:32:00,84.0,73.0,-100.00,South,176,2.0,4.0,70,0.00,,,-99.99,1.000000,,2013-07-27 02:32:00,
2013-07-26 21:43:00,84.0,73.0,-100.00,South,176,2.0,4.0,70,0.00,,,-99.99,1.000000,,2013-07-27 02:43:00,
2013-07-26 21:53:00,84.0,73.0,-100.00,South,176,2.0,4.0,70,0.00,,,-99.99,1.000000,,2013-07-27 02:53:00,
2013-07-26 22:22:00,84.0,73.0,-100.00,SSE,166,5.0,10.0,69,0.00,,,0.00,0.000000,,2013-07-27 03:22:00,
2013-07-26 22:33:00,84.0,73.0,-100.00,SSE,166,5.0,10.0,69,0.00,,,0.00,0.000000,,2013-07-27 03:33:00,
2013-07-26 22:44:00,84.0,73.0,-100.00,SSE,166,5.0,10.0,69,0.00,,,0.00,0.000000,,2013-07-27 03:44:00,
2013-07-26 22:52:00,84.0,73.0,-100.00,SSE,166,5.0,10.0,69,0.00,,,0.00,0.000000,,2013-07-27 03:52:00,
2013-07-26 23:02:00,84.0,73.0,-100.00,SSE,166,5.0,10.0,69,0.00,,,0.00,0.000000,,2013-07-27 04:02:00,
2013-07-26 23:22:00,83.0,74.0,-100.00,South,181,5.0,10.0,75,0.00,,,0.00,0.000000,,2013-07-27 04:22:00,
2013-07-26 23:32:00,83.0,74.0,-100.00,South,181,5.0,10.0,75,0.00,,,0.00,0.000000,,2013-07-27 04:32:00,
2013-07-26 23:43:00,83.0,74.0,-100.00,South,181,5.0,10.0,75,0.00,,,0.00,0.000000,,2013-07-27 04:43:00,
2013-07-26 23:53:00,83.0,74.0,-100.00,South,181,5.0,10.0,75,0.00,,,0.00,0.000000,,2013-07-27 04:53:00,